GFSGL_850_temp_036.txt.gz
Temp
18 17 17 17 17 16 16 16 15 15 15 15 13 15 15 16 15 15 16 16 16 16 16 16 16 15 15 15 16 16 15 15 15 14 14 13 13 13 13 13 13 13 13
17 17 17 17 17 16 16 14 13 15 15 14 15 15 16 15 15 15 15 15 16 16 16 16 16 16 16 16 15 15 15 15 15 15 14 13 13 12 12 13 12 12 12
17 17 17 17 16 16 15 14 14 15 16 15 15 15 16 16 15 15 15 15 15 15 15 16 15 15 15 15 15 15 15 15 15 15 14 13 12 12 12 12 12 12 12
17 17 17 16 16 16 16 16 15 16 16 15 15 15 15 16 15 15 15 15 15 15 15 15 15 15 15 14 14 14 14 14 14 13 13 12 12 12 11 11 11 11 11
17 17 17 17 17 17 17 17 17 16 16 15 15 15 15 15 15 14 14 14 14 14 14 15 14 14 14 14 14 13 13 13 12 13 12 12 12 11 11 11 10 10 10
17 17 17 17 17 17 17 17 17 16 15 15 15 15 15 15 14 14 14 14 14 13 13 13 13 13 14 13 13 13 12 12 12 12 12 11 11 11 10 10 10 9 9
18 18 18 18 18 17 17 16 17 16 15 15 15 14 15 15 14 13 13 13 13 13 12 12 13 12 12 12 12 12 11 11 11 10 10 10 10 9 9 9 9 9 9
18 18 18 19 19 19 17 16 17 17 15 14 14 14 14 14 13 13 13 12 12 12 12 12 12 12 11 11 11 12 12 11 10 10 9 9 9 9 9 9 9 9 8
18 18 17 18 18 18 18 17 15 16 15 14 14 13 13 13 12 12 12 12 12 12 12 12 12 11 11 11 10 10 10 10 9 9 9 9 9 9 9 8 8 8 8
18 18 18 17 18 18 17 16 15 15 15 14 13 13 12 12 12 11 11 12 12 11 11 11 11 11 10 10 10 9 9 9 9 9 9 9 9 9 9 8 8 9 8
17 18 18 18 18 17 16 14 14 14 14 13 12 12 12 12 11 11 11 11 11 11 11 11 10 10 10 9 9 9 9 9 9 8 8 8 8 8 8 8 8 9 8
16 16 17 17 17 16 15 14 14 14 13 12 12 11 11 11 11 11 10 10 10 10 11 11 10 10 9 9 8 9 9 9 9 9 8 8 8 8 7 7 7 7 7
15 14 15 15 14 14 14 14 13 13 13 12 12 11 11 11 10 10 10 10 9 9 9 9 9 9 9 8 8 8 8 9 9 8 8 8 7 7 7 7 7 7 7
14 14 14 13 13 13 13 13 13 13 12 12 11 11 10 10 10 10 9 9 9 9 9 9 9 9 8 8 8 8 8 8 8 7 7 7 7 7 7 6 7 7 7
14 15 13 12 12 12 12 12 12 12 11 11 11 10 10 10 9 9 9 9 9 9 9 9 8 8 8 8 8 7 7 7 7 7 7 7 7 7 6 6 6 7 7
13 12 11 11 11 11 12 12 11 11 10 10 10 9 9 9 9 9 9 8 8 9 8 8 9 9 8 8 8 7 7 7 7 7 6 6 6 6 6 6 6 6 7
12 11 10 11 11 11 11 11 11 11 11 10 10 9 9 9 9 8 8 8 8 8 8 8 9 8 8 8 8 8 7 7 7 6 6 6 5 6 6 6 6 6 6
11 11 11 11 11 11 11 11 11 11 11 11 10 10 9 9 9 9 9 9 9 8 8 9 9 8 8 8 8 7 7 6 6 6 5 5 5 5 5 5 6 6 6
11 11 11 11 11 11 11 11 11 11 11 11 11 10 10 10 9 9 9 9 9 9 9 9 9 8 8 8 7 7 7 6 6 5 5 5 5 5 5 5 5 5 5
11 12 12 11 11 11 12 11 11 11 11 11 11 11 10 10 9 9 9 9 9 9 9 9 9 8 8 7 7 7 6 6 6 5 5 5 5 5 5 5 5 5 5
12 12 12 12 12 12 12 12 12 12 12 12 11 11 10 10 10 9 9 9 9 9 9 9 9 9 8 8 7 7 7 6 6 5 5 5 5 5 5 5 5 5 5
12 12 12 12 12 12 12 12 12 12 11 11 11 11 10 10 10 10 10 9 9 9 9 9 9 9 8 8 7 7 7 7 6 6 5 5 5 5 5 5 5 5 5
12 12 12 12 12 12 12 12 12 11 11 11 11 11 11 10 10 10 10 9 9 9 9 9 9 8 8 7 7 7 7 6 6 6 6 6 6 6 5 5 5 5 5
12 12 12 12 12 12 12 12 12 11 11 11 11 11 10 10 9 9 9 9 9 9 9 9 8 8 7 7 7 7 6 6 6 6 6 6 5 5 5 5 5 5 5
13 12 12 12 12 11 11 11 11 11 11 10 10 10 9 9 9 9 9 9 9 8 8 8 8 7 7 6 6 6 6 6 6 5 5 5 5 5 5 5 4 5 4
11 12 12 11 11 11 11 11 11 11 11 10 10 9 9 9 9 9 8 8 8 8 7 7 7 6 6 6 5 5 5 5 5 4 5 5 4 4 3 3 3 3 3

GFSGL_850_temp_042.txt.gz
Temp
18 18 17 17 17 16 16 16 16 16 15 15 16 16 16 16 16 16 16 16 16 15 15 15 15 15 15 15 15 15 15 15 15 14 14 14 14 14 14 14 14 13 12
16 17 17 17 17 17 16 16 15 16 15 15 15 15 15 16 15 16 16 15 15 15 15 15 15 14 14 15 15 15 15 15 15 15 14 13 13 13 13 12 12 12 12
18 18 17 17 17 16 16 15 15 15 15 15 15 15 15 15 15 16 15 15 15 15 14 14 14 14 14 14 14 14 14 15 14 14 13 13 13 12 12 12 12 11 11
17 17 17 18 17 16 16 16 15 15 15 16 16 15 15 15 15 15 15 15 15 15 14 14 13 13 14 13 13 14 14 14 14 14 13 13 12 12 11 11 11 11 10
18 17 17 17 17 17 16 16 15 16 15 15 16 15 15 14 14 13 14 14 14 14 14 14 14 13 13 14 13 13 13 13 13 13 13 13 12 11 11 10 10 10 10
17 17 17 17 16 16 15 15 15 15 15 15 15 15 15 14 14 13 12 13 13 13 13 13 13 13 13 13 13 13 13 12 12 12 12 12 11 11 10 10 10 9 9
17 17 17 16 16 15 15 14 15 15 15 15 15 15 14 14 14 13 13 13 12 12 12 12 12 12 12 12 12 12 12 12 11 10 10 10 10 10 10 10 9 9 8
18 18 18 17 16 18 16 15 14 14 14 14 14 14 14 13 13 13 13 12 12 12 12 12 11 11 11 11 11 11 11 11 11 9 9 9 8 9 9 9 8 8 8
19 19 19 17 17 17 15 14 14 13 13 13 13 13 14 13 13 12 12 12 12 12 11 11 11 11 11 11 10 10 10 10 9 9 9 9 9 9 8 8 8 8 8
19 18 18 17 17 16 15 15 14 13 12 12 13 13 13 12 12 11 11 11 11 11 11 11 10 10 10 10 9 9 10 10 9 9 9 9 9 9 9 8 8 8 7
17 17 17 17 17 16 16 15 14 13 12 12 12 12 12 12 11 11 11 10 10 10 10 10 10 9 9 9 9 9 9 9 9 9 8 8 8 8 8 7 7 7 7
16 16 16 16 16 16 16 15 14 13 13 12 12 12 12 12 11 11 10 10 10 10 10 10 10 9 9 9 8 8 9 9 9 8 8 8 7 7 7 7 7 7 7
16 15 14 15 15 15 16 14 13 13 13 12 12 11 11 12 11 11 10 10 10 9 9 9 9 9 9 9 8 8 8 8 8 8 7 7 7 7 7 6 6 6 6
15 14 15 14 13 13 13 13 13 13 12 12 12 11 11 11 11 10 10 9 9 9 9 9 9 9 8 8 8 8 7 7 7 7 7 7 7 6 6 6 6 6 6
13 13 13 12 12 13 13 13 13 13 12 12 12 11 11 10 10 9 9 9 9 8 9 9 8 8 8 8 8 7 7 7 7 6 6 6 6 6 6 6 6 6 6
13 12 11 11 12 12 13 13 12 12 11 11 11 10 10 9 9 9 9 8 8 8 8 8 8 8 8 8 7 7 7 6 6 6 6 5 5 5 5 5 5 6 6
11 11 10 11 11 12 12 12 12 11 11 11 10 10 9 9 9 8 8 8 8 8 8 9 8 8 8 8 7 7 7 6 6 6 6 5 5 5 5 5 5 5 5
10 10 10 10 11 11 11 11 11 11 11 11 10 9 9 8 8 8 8 8 8 8 8 8 9 8 8 8 7 7 7 6 6 6 5 5 5 5 5 5 5 5 5
10 10 10 11 11 11 11 11 11 11 11 11 10 10 9 9 9 8 9 8 8 8 8 9 9 8 8 8 7 7 7 6 6 6 5 5 5 5 5 5 5 5 5
11 11 12 11 12 12 12 11 11 11 11 11 11 10 10 10 9 9 9 8 8 8 9 9 9 8 8 8 7 7 7 6 6 6 6 5 5 5 5 5 5 5 5
11 11 11 11 11 11 11 11 11 11 11 11 10 10 10 10 10 9 9 8 8 9 9 9 8 8 8 8 8 7 7 7 6 6 6 6 5 5 5 5 5 5 5
11 11 11 11 11 11 11 11 11 11 11 11 10 10 10 10 10 9 9 9 9 9 9 9 9 8 8 8 8 7 7 7 7 6 6 6 6 6 5 5 5 5 5
11 11 12 11 12 12 11 11 11 11 11 11 11 10 10 10 10 9 9 9 9 9 9 9 9 9 9 8 8 7 7 6 6 6 6 6 6 5 5 5 5 5 5
11 12 12 12 12 12 12 11 11 11 11 11 11 11 11 10 10 9 9 9 9 9 9 9 9 9 8 8 7 7 6 6 5 5 5 5 5 5 4 4 4 4 4
12 12 12 12 12 12 12 11 11 11 11 11 11 10 10 10 10 10 9 9 9 9 8 8 8 7 7 6 6 6 5 5 5 4 4 4 4 3 3 3 3 3 3
12 12 12 12 12 12 11 11 11 11 11 11 10 10 10 10 10 9 9 9 9 8 7 7 6 6 6 5 5 5 4 4 4 3 3 3 3 3 2 2 2 2 1

GFSGL_850_temp_045.txt.gz
Temp
17 16 17 18 17 17 17 18 18 17 16 16 16 16 15 15 15 16 15 16 16 16 15 15 15 15 15 15 15 15 15 15 15 14 14 13 13 13 14 13 13 13 13
16 16 17 17 16 17 17 17 17 16 16 16 16 15 15 15 15 15 15 15 16 15 14 14 14 14 14 14 15 15 15 15 14 14 13 13 13 13 12 13 12 12 12
15 16 16 16 16 16 17 17 17 16 16 15 15 15 15 15 15 15 15 15 15 15 14 13 14 14 14 14 14 15 14 14 14 14 13 12 12 12 12 12 12 11 11
16 16 16 15 15 16 16 17 17 16 15 15 15 15 15 15 15 15 15 15 15 14 14 14 13 13 13 13 14 14 14 14 14 14 13 13 12 11 11 11 11 11 10
17 16 16 15 15 15 15 15 16 16 15 15 15 15 14 14 14 14 14 14 15 14 14 14 14 14 14 14 13 13 12 13 13 13 12 12 12 11 11 11 10 10 10
18 17 16 16 16 16 16 15 15 16 15 14 14 14 14 14 14 14 14 14 14 14 14 13 13 13 13 13 13 13 13 12 12 12 11 11 11 10 10 10 10 9 9
17 17 17 17 17 16 15 15 14 16 15 14 14 13 14 14 13 13 13 13 13 13 13 13 13 13 13 12 12 12 12 12 12 10 11 11 10 10 10 10 9 9 9
17 17 17 17 17 17 16 15 15 16 15 14 14 13 13 13 13 13 13 13 12 12 12 12 12 12 12 12 11 11 11 11 11 10 9 9 9 9 9 9 8 8 9
17 17 17 17 17 17 16 14 16 16 15 14 13 13 12 12 12 12 12 12 12 12 12 12 11 11 11 11 11 10 10 10 9 9 9 9 9 9 9 7 8 8 7
17 17 17 17 17 17 16 15 15 15 14 13 13 13 12 12 12 12 11 11 12 11 11 11 11 11 10 10 10 10 10 9 9 9 9 9 9 9 9 8 7 8 8
16 16 17 17 16 16 15 15 14 14 13 12 13 13 12 12 11 11 11 11 11 11 11 11 10 10 10 10 10 9 9 9 9 9 8 8 8 7 7 7 7 7 7
16 15 16 16 15 15 15 15 15 14 13 12 13 12 12 12 11 11 11 10 10 10 10 10 10 10 9 9 9 9 9 9 8 8 7 7 7 7 6 7 7 7 7
14 15 15 15 15 15 14 14 14 13 13 13 12 12 12 11 11 10 10 10 10 10 10 9 10 9 9 8 8 8 8 7 7 8 7 7 7 7 7 6 6 6 6
14 14 14 14 14 14 13 13 13 13 13 12 12 11 11 11 11 10 10 9 9 9 9 9 9 9 8 8 8 8 7 7 7 7 6 6 6 6 6 6 6 6 6
14 14 14 13 13 13 13 13 13 13 13 12 12 11 11 11 11 10 10 9 9 9 9 9 9 8 8 8 7 7 7 7 6 6 6 6 6 6 6 5 5 6 6
13 12 12 12 12 13 13 13 12 12 12 12 11 11 11 10 10 9 9 9 8 8 9 8 8 8 8 8 7 7 7 7 6 6 6 5 5 5 5 5 5 6 6
11 11 11 11 12 12 12 12 12 11 11 11 10 10 10 10 9 9 8 8 8 9 8 8 8 8 8 8 7 7 7 7 7 6 5 5 5 5 5 5 5 5 6
10 10 11 11 11 11 11 11 11 11 11 10 10 10 10 10 9 8 8 8 8 8 8 8 8 8 8 8 7 7 7 7 6 6 5 5 5 5 5 5 5 5 5
10 10 10 11 11 11 11 11 11 11 10 10 10 10 10 9 9 8 8 8 7 8 8 8 9 8 8 8 8 7 7 7 7 6 6 5 5 5 5 5 5 5 5
10 10 10 11 11 11 11 11 11 11 11 11 11 10 10 10 9 9 9 9 8 8 9 9 9 8 8 8 8 8 8 7 7 7 6 6 6 5 5 5 6 6 6
10 11 11 12 12 12 11 11 11 11 11 11 11 11 10 10 10 9 9 9 9 8 9 9 9 8 8 8 8 8 8 7 7 7 6 6 5 5 5 5 5 5 5
11 11 11 10 11 11 11 11 11 11 11 11 11 10 10 10 10 9 9 9 9 9 9 9 9 9 9 9 8 8 8 7 7 7 6 6 6 5 5 5 5 5 5
10 11 11 11 11 11 11 11 11 11 11 11 10 10 10 10 10 9 9 9 9 9 9 9 9 9 9 9 8 8 7 7 7 6 6 6 5 4 4 4 4 4 5
10 11 11 11 11 11 11 11 11 11 11 11 11 11 10 10 10 10 9 9 9 9 9 9 9 9 8 8 8 7 7 6 6 5 5 5 4 4 3 3 3 3 3
10 11 11 11 12 12 11 11 11 11 11 11 11 11 11 10 10 10 10 9 9 9 9 9 9 8 8 7 7 6 6 5 5 4 4 4 4 3 3 2 1 1 1
11 11 12 12 12 12 12 12 11 11 11 11 10 10 10 10 10 10 10 9 9 8 8 8 7 7 6 6 5 5 5 4 4 4 3 3 2 2 2 1 1 0 0

GFSGL_850_temp_048.txt.gz
Temp
17 16 15 16 16 17 14 13 14 16 17 17 16 16 16 17 17 16 15 14 14 14 15 15 15 16 16 16 16 16 15 15 15 14 13 13 13 13 13 13 13 13 13
15 15 16 15 15 16 14 14 15 15 16 17 16 16 16 16 16 16 15 15 14 14 14 14 15 15 15 15 15 15 15 15 14 14 13 13 13 13 12 12 12 12 12
15 16 15 15 15 14 14 13 13 16 17 16 16 16 16 16 15 14 14 15 14 13 13 13 14 14 14 14 15 15 15 15 14 14 13 13 12 12 12 12 11 11 11
16 15 15 15 14 14 14 14 14 14 14 16 15 16 16 15 15 14 12 12 13 13 13 14 14 14 14 14 14 14 14 13 13 13 13 12 12 11 11 11 11 11 11
15 15 15 15 15 14 14 13 13 14 15 15 15 14 13 13 13 14 14 12 12 12 11 13 14 14 14 14 12 13 13 13 13 13 12 12 11 11 11 11 10 10 10
16 16 15 15 15 14 14 13 15 15 15 15 13 13 13 14 14 14 13 13 13 13 13 12 12 12 13 13 13 13 13 12 12 11 11 11 11 10 10 10 10 9 9
16 16 16 16 15 15 14 14 15 15 16 15 15 12 13 14 14 14 14 13 13 13 13 11 12 11 11 11 12 12 12 12 12 11 11 10 10 10 10 10 9 9 9
16 16 17 16 17 16 14 13 14 15 15 13 15 14 14 14 14 13 13 13 13 12 12 12 12 12 12 10 10 12 12 12 10 10 9 9 10 10 10 9 9 9 9
16 17 17 16 16 16 15 14 14 15 14 14 15 14 14 13 13 13 12 11 12 12 12 12 11 11 11 11 10 10 10 10 10 10 10 10 10 10 10 9 9 9 9
16 17 17 17 16 16 14 15 15 15 13 12 14 14 14 13 13 12 12 12 11 11 10 11 11 11 11 11 9 9 9 9 9 8 8 8 8 9 9 9 9 10 11
16 16 17 16 16 15 15 16 15 14 13 13 13 13 13 12 12 12 11 11 11 11 11 9 11 11 10 10 10 9 9 8 9 9 10 10 9 9 9 7 8 8 9
17 16 16 16 16 15 16 16 15 14 13 13 13 12 12 12 12 11 11 11 11 11 10 10 10 10 10 10 10 10 9 9 10 10 10 10 9 9 8 7 7 7 7
15 15 15 14 15 15 15 15 15 14 13 13 12 12 12 12 11 11 11 10 10 10 10 10 10 9 9 9 9 9 9 10 10 10 10 9 8 8 7 7 7 7 7
14 14 14 15 15 15 14 14 14 14 13 13 12 13 12 12 11 11 10 10 10 10 9 10 9 9 9 8 8 9 9 9 9 9 9 8 8 8 8 8 8 8 8
13 13 13 14 14 14 13 13 14 13 13 13 12 12 12 11 11 11 10 10 9 9 9 9 8 9 10 10 9 9 9 9 9 8 8 8 8 8 8 8 8 8 8
13 13 12 13 13 13 13 13 13 13 12 12 12 12 11 11 11 10 10 9 9 9 9 9 10 10 10 10 10 9 9 8 8 8 8 8 8 8 7 8 8 8 8
12 12 12 12 12 12 13 13 12 12 12 12 11 11 11 11 10 10 10 9 9 9 9 10 10 10 10 10 10 10 9 8 8 8 8 8 8 8 8 8 8 8 8
11 11 11 12 12 12 12 12 12 12 12 11 11 11 10 10 10 10 9 8 8 9 10 11 10 10 10 10 9 9 9 8 8 8 8 8 8 8 8 8 8 8 8
10 10 10 11 11 11 11 11 11 11 10 9 10 10 9 9 9 8 8 8 10 10 10 10 10 10 10 9 9 9 8 9 8 8 8 8 8 8 8 8 8 7 7
10 10 10 10 11 11 10 10 11 11 11 10 10 9 10 9 9 8 8 8 10 11 11 10 10 10 10 9 9 9 8 8 8 8 8 8 8 8 8 8 8 8 8
10 10 10 11 11 11 12 12 12 12 12 12 11 10 10 10 11 10 10 10 10 10 10 10 10 10 9 9 9 9 9 9 9 8 8 8 8 8 8 8 8 8 8
11 10 11 12 12 12 12 12 12 12 12 12 11 11 11 11 11 11 10 10 10 10 10 10 10 10 10 10 9 9 9 9 9 8 8 7 7 7 7 7 7 8 8
11 11 12 12 12 12 12 12 12 12 12 12 12 11 11 10 11 11 11 10 10 10 9 9 9 10 9 9 9 8 8 8 7 6 6 6 6 6 6 6 6 6 6
11 12 12 12 12 11 12 12 12 12 12 12 12 12 11 11 11 11 11 10 9 9 9 9 8 8 9 9 8 8 8 8 7 5 6 5 5 5 5 5 5 5 5
12 12 12 12 12 12 12 12 13 13 12 12 12 11 11 11 11 11 10 9 9 9 9 9 9 9 9 8 8 8 7 6 6 5 5 4 3 3 3 3 4 4 4
11 11 12 12 12 12 12 13 13 13 12 12 11 11 11 10 11 10 10 10 9 9 9 8 8 8 8 7 7 7 6 5 5 5 4 3 2 2 2 2 2 2 3